Change the Weather History Date:

Saturday, February 23, 2013

  Actual Average Record
Temperature  
Mean Temperature 60 °F 55 °F  
Max Temperature 68 °F 67 °F 80 °F (1944)
Min Temperature 52 °F 43 °F 24 °F (1964)
Degree Days  
Heating Degree Days 5 11  
Month to date heating degree days 1378 294  
Since 1 July heating degree days 2284 1510  
Growing Degree Days 10 (Base 50)    
Moisture  
Dew Point 58 °F    
Average Humidity 96    
Maximum Humidity 100    
Minimum Humidity 88    
Precipitation  
Precipitation 0.81 in 0.17 in 1.15 in (1961)
Month to date precipitation 4.35 3.96  
Year to date precipitation 4.50 8.59  
Sea Level Pressure  
Sea Level Pressure 29.92 in    
Wind  
Wind Speed 6 mph (NNW)    
Max Wind Speed 14 mph    
Max Gust Speed 25 mph    
Visibility 7 miles    
Events Rain , Thunderstorm    
T = Trace of Precipitation, MM = Missing Value Source: NWS Daily Summary

Daily Weather History Graph

Daily Weather History Graph

Search for Another Location

Airport or City:

Trip Planner

Search our weather history database for the weather conditions in past years. The results will help you decide how hot, cold, wet, or windy it might be!

Date:

Astronomy

Feb. 23, 2013 Rise Set
Actual Time 6:14 AM CST 5:35 PM CST
Civil Twilight 5:50 AM CST 6:00 PM CST
Nautical Twilight 5:22 AM CST 6:28 PM CST
Astronomical Twilight 4:54 AM CST 6:56 PM CST
Moon 3:49 PM CST (2/23) 4:31 AM CST (2/23)
Length of Visible Light 12h 09m
Length of Day
11h 20m
Waxing Gibbous, 95% of the Moon is Illuminated
Feb 23
Waxing Gibbous
Feb 25
Full
Mar 4
Last Quarter
Mar 11
New
Mar 19
First Quarter

Hourly Weather History & Observations

Time (CST) Temp. Dew Point Humidity Pressure Visibility Wind Dir Wind Speed Gust Speed Precip Events Conditions
12:00 AM 60.8 °F 60.8 °F 100% 29.94 in 2.5 mi ENE 4.6 mph - 0.03 in Rain Light Rain
12:07 AM 60.8 °F 60.8 °F 100% 29.94 in 10.0 mi ENE 5.8 mph - 0.03 in Rain Light Rain
12:14 AM 60.8 °F 60.8 °F 100% 29.95 in 10.0 mi Calm Calm - 0.03 in   Overcast
12:53 AM 60.1 °F 60.1 °F 100% 29.92 in 10.0 mi SE 3.5 mph - 0.03 in   Overcast
1:24 AM 60.8 °F 60.8 °F 100% 29.91 in 8.0 mi SE 5.8 mph - 0.00 in Rain Light Rain
1:53 AM 62.1 °F 61.0 °F 96% 29.88 in 1.2 mi SSE 6.9 mph - 0.00 in   Overcast
2:53 AM 66.0 °F 66.0 °F 100% 29.89 in 0.8 mi SSW 5.8 mph - 0.00 in Rain Light Rain
3:04 AM 66.2 °F 66.2 °F 100% 29.89 in 1.0 mi SSW 4.6 mph - 0.00 in Rain Light Rain
3:29 AM 66.2 °F 66.2 °F 100% 29.89 in 3.0 mi SW 4.6 mph - 0.00 in   Overcast
3:46 AM 66.2 °F 66.2 °F 100% 29.89 in 5.0 mi SW 6.9 mph - 0.00 in   Overcast
3:53 AM 66.9 °F 66.9 °F 100% 29.88 in 6.0 mi SW 6.9 mph - 0.00 in   Overcast
4:08 AM 68.0 °F 66.2 °F 94% 29.89 in 6.0 mi SW 6.9 mph - N/A   Overcast
4:14 AM 68.0 °F 66.2 °F 94% 29.88 in 5.0 mi SW 6.9 mph - 0.01 in Rain Rain
4:29 AM 68.0 °F 66.2 °F 94% 29.88 in 7.0 mi SSW 6.9 mph - 0.01 in   Overcast
4:53 AM 64.9 °F 64.9 °F 100% 29.89 in 6.0 mi NW 8.1 mph - 0.05 in   Overcast
5:04 AM 62.6 °F 62.6 °F 100% 29.90 in 7.0 mi NW 11.5 mph - 0.00 in Rain , Thunderstorm Light Rain
5:23 AM 60.8 °F 59.0 °F 94% 29.91 in 3.0 mi North 8.1 mph - 0.00 in   Overcast
5:59 AM 55.4 °F 55.4 °F 100% 29.94 in 2.5 mi NNW 13.8 mph 25.3 mph 0.12 in Rain , Thunderstorm Heavy Rain
6:06 AM 55.4 °F 55.4 °F 100% 29.94 in 3.0 mi North 8.1 mph - 0.17 in Rain , Thunderstorm Rain
6:10 AM 55.4 °F 55.4 °F 100% 29.93 in 5.0 mi North 6.9 mph - 0.17 in Rain Rain
6:18 AM 55.4 °F 55.4 °F 100% 29.94 in 10.0 mi East 3.5 mph - 0.17 in Rain Light Rain
6:53 AM 57.9 °F 57.0 °F 97% 29.92 in 3.0 mi WNW 9.2 mph - 0.30 in Rain Heavy Rain
7:28 AM 59.0 °F 57.2 °F 94% 29.93 in 1.8 mi WNW 9.2 mph - 0.14 in Rain Heavy Rain
7:38 AM 59.0 °F 57.2 °F 94% 29.93 in 3.0 mi NW 6.9 mph - 0.17 in Rain Light Rain
7:53 AM 59.0 °F 57.9 °F 96% 29.93 in 4.0 mi NW 6.9 mph - 0.20 in Rain Light Rain
8:21 AM 59.0 °F 57.2 °F 94% 29.93 in 10.0 mi Calm Calm - 0.01 in   Overcast
8:33 AM 59.0 °F 57.2 °F 94% 29.94 in 10.0 mi West 3.5 mph - 0.01 in   Overcast
8:53 AM 59.0 °F 57.0 °F 93% 29.94 in 2.5 mi Variable 3.5 mph - 0.05 in Rain Heavy Rain
9:00 AM 59.0 °F 57.2 °F 94% 29.94 in 3.0 mi SW 4.6 mph - 0.02 in Rain Rain
9:53 AM 57.9 °F 57.0 °F 97% 29.95 in 5.0 mi Calm Calm - 0.07 in Rain Rain
10:12 AM 59.0 °F 57.2 °F 94% 29.94 in 9.0 mi NNE 3.5 mph - 0.03 in Rain Light Rain
10:31 AM 59.0 °F 57.2 °F 94% 29.96 in 10.0 mi Calm Calm - 0.03 in   Mostly Cloudy
10:42 AM 59.0 °F 57.2 °F 94% 29.96 in 10.0 mi Calm Calm - 0.03 in   Mostly Cloudy
10:53 AM 60.1 °F 57.9 °F 93% 29.95 in 10.0 mi Calm Calm - 0.03 in   Mostly Cloudy
11:00 AM 60.8 °F 57.2 °F 88% 29.96 in 10.0 mi Calm Calm - N/A   Overcast
11:13 AM 60.8 °F 57.2 °F 88% 29.95 in 10.0 mi NNW 3.5 mph - N/A   Overcast
11:21 AM 60.8 °F 57.2 °F 88% 29.94 in 10.0 mi NNW 3.5 mph - N/A   Overcast
11:43 AM 62.6 °F 59.0 °F 88% 29.92 in 10.0 mi Calm Calm - N/A   Scattered Clouds
11:53 AM 62.1 °F 59.0 °F 90% 29.91 in 10.0 mi Calm Calm - N/A   Scattered Clouds
12:29 PM 62.6 °F 59.0 °F 88% 29.91 in 10.0 mi NNW 10.4 mph - N/A   Overcast
12:42 PM 62.6 °F 59.0 °F 88% 29.91 in 10.0 mi NNW 8.1 mph - N/A   Scattered Clouds
12:53 PM 61.0 °F 57.9 °F 90% 29.91 in 10.0 mi NNW 8.1 mph - N/A   Scattered Clouds
1:15 PM 60.8 °F 57.2 °F 88% 29.92 in 10.0 mi NW 8.1 mph - N/A   Mostly Cloudy
1:53 PM 59.0 °F 55.9 °F 90% 29.90 in 10.0 mi NW 9.2 mph - 0.00 in   Mostly Cloudy
2:53 PM 59.0 °F 55.9 °F 90% 29.88 in 10.0 mi NNW 5.8 mph - N/A   Overcast
3:53 PM 57.0 °F 55.0 °F 93% 29.90 in 10.0 mi Calm Calm - N/A   Overcast
4:53 PM 55.9 °F 55.0 °F 97% 29.93 in 7.0 mi WNW 10.4 mph - 0.02 in Rain Rain
5:48 PM 55.4 °F 53.6 °F 94% 29.85 in 10.0 mi East 4.6 mph - 0.05 in   Mostly Cloudy
5:53 PM 55.9 °F 55.0 °F 97% 29.84 in 10.0 mi East 8.1 mph - 0.05 in   Mostly Cloudy
6:00 PM 55.4 °F 55.4 °F 100% 29.85 in 10.0 mi NE 4.6 mph - N/A   Mostly Cloudy
6:53 PM 55.9 °F 55.0 °F 97% 29.86 in 10.0 mi ESE 4.6 mph - N/A   Overcast
7:53 PM 55.0 °F 54.0 °F 96% 29.91 in 5.0 mi NW 9.2 mph - N/A   Overcast
9:33 PM 53.6 °F 53.6 °F 100% 29.96 in 2.5 mi NW 10.4 mph - N/A   Overcast
9:42 PM 53.6 °F 53.6 °F 100% 29.96 in 2.5 mi NNW 9.2 mph - N/A   Overcast
9:53 PM 54.0 °F 53.1 °F 97% 29.96 in 2.0 mi North 8.1 mph - N/A   Overcast
10:21 PM 53.6 °F 53.6 °F 100% 29.97 in 1.8 mi NNW 8.1 mph - N/A   Overcast
10:29 PM 53.6 °F 53.6 °F 100% 29.97 in 2.5 mi North 9.2 mph - N/A   Overcast
10:53 PM 53.1 °F 52.0 °F 96% 29.96 in 2.0 mi NNW 8.1 mph - N/A   Overcast
11:09 PM 51.8 °F 51.8 °F 100% 29.98 in 4.0 mi NNW 10.4 mph - N/A   Overcast
11:27 PM 51.8 °F 51.8 °F 100% 29.98 in 10.0 mi NNW 6.9 mph - N/A   Overcast
11:53 PM 53.1 °F 51.1 °F 93% 29.98 in 10.0 mi North 5.8 mph - N/A   Overcast